This is the latest recevied weather packets stored in our database for station/object W0AKY-13. If no packets are shown the sender has not sent any weather packets the latest 10 day(s).
| Time | Temp. | Humidity | Pressure | Rain* | Wind** | Luminosity | Snow |
|---|---|---|---|---|---|---|---|
| 1777909988 | 22.78° C | 44% | 1004 hPa | 0 mm | - | 524 W/m² | - |
| 1777909685 | 22.22° C | 44% | 1004 hPa | 0 mm | - | 512 W/m² | - |
| 1777909383 | 21.67° C | 44% | 1004.2 hPa | 0 mm | - | 497 W/m² | - |
| 1777909081 | 21.67° C | 43% | 1004.3 hPa | 0 mm | - | 484 W/m² | - |
| 1777908778 | 21.67° C | 46% | 1004.2 hPa | 0 mm | - | 472 W/m² | - |
| 1777908475 | 21.67° C | 47% | 1003.9 hPa | 0 mm | - | 459 W/m² | - |
| 1777908171 | 20.56° C | 51% | 1003.8 hPa | 0 mm | - | 448 W/m² | - |
| 1777907868 | 20.56° C | 50% | 1004 hPa | 0 mm | - | 433 W/m² | - |
| 1777907563 | 20.56° C | 47% | 1004 hPa | 0 mm | - | 420 W/m² | - |
| 1777907259 | 20.56° C | 48% | 1003.7 hPa | 0 mm | - | 406 W/m² | - |
| 1777906956 | 20° C | 50% | 1003.7 hPa | 0 mm | - | 392 W/m² | - |
| 1777906654 | 20° C | 52% | 1003.8 hPa | 0 mm | - | 381 W/m² | - |
| 1777906350 | 19.44° C | 51% | 1003.9 hPa | 0 mm | - | 325 W/m² | - |
| 1777906046 | 18.89° C | 52% | 1003.9 hPa | 0 mm | - | 354 W/m² | - |
| 1777905743 | 18.89° C | 53% | 1004 hPa | 0 mm | - | 331 W/m² | - |
| 1777905440 | 18.89° C | 54% | 1004.2 hPa | 0 mm | - | 327 W/m² | - |
| 1777905138 | 18.89° C | 54% | 1003.9 hPa | 0 mm | - | 313 W/m² | - |
| 1777904835 | 18.33° C | 59% | 1004 hPa | 0 mm | - | 300 W/m² | - |
| 1777904532 | 17.22° C | 61% | 1003.8 hPa | 0 mm | - | 165 W/m² | - |
| 1777904228 | 16.67° C | 60% | 1003.9 hPa | 0 mm | - | 51 W/m² | - |
| 1777903926 | 16.67° C | 63% | 1003.7 hPa | 0 mm | - | 36 W/m² | - |
| 1777903622 | 16.11° C | 62% | 1004.2 hPa | 0 mm | - | 34 W/m² | - |
| 1777903318 | 15.56° C | 62% | 1003.8 hPa | 0 mm | - | 32 W/m² | - |
| 1777903015 | 15° C | 64% | 1003.8 hPa | 0 mm | - | 31 W/m² | - |
| 1777902711 | 15° C | 67% | 1003.9 hPa | 0 mm | - | 31 W/m² | - |
* Rain latest hour (hover to see other rain measurements)
** Current wind speed in m/s (hover to see current wind gust speed)